[[{"header":{"parameterUnit":"m.s-1","parameterCategory":2,"la1":30.2992,"la2":30.254,"lo1":-89.0895,"lo2":-89.0443,"dy":0.0025,"dx":0.0025,"nx":19,"ny":19,"refTime":"2026-05-15T09:00:00:Z","depth":"0","parameterNumber":2,"parameterNumberName":"U-component_of_CURRENTS"},"data":[0,0,0,0.3857,0.3858,0.3883,0.3883,0.3897,0.3897,0,0,0,0,0,0,0,0,0,0,0,0.3835,0.3835,0.3856,0.3858,0.3883,0.3883,0.3897,0.3897,0,0,0,0,0,0,0,0,0,0,0,0.3835,0.3835,0.3836,0.3858,0.3883,0.3883,0.3897,0.3876,0,0,0,0,0,0,0,0,0,0,0.3852,0.3859,0.3835,0.3836,0.3859,0.3883,0.3883,0.3875,0.3878,0.3888,0,0.3902,0,0.3918,0.39,0.39,0,0,0,0.3833,0.3857,0.3856,0.3836,0.3859,0.3883,0.3865,0.3876,0.3879,0.3891,0.3902,0.3903,0.3918,0.39,0.3901,0.4112,0.4114,0,0,0.3832,0.3845,0.3854,0.3858,0.3879,0.3864,0.3866,0.3878,0.3891,0.3902,0.3904,0.3918,0.3901,0.3901,0.411,0.4112,0,0,0,0.3845,0.3844,0.3842,0.3857,0.3873,0.3865,0.3867,0.389,0.3888,0.3904,0.3918,0.3901,0.3901,0.4108,0.4111,0.4243,0,0,0,0.3842,0.3853,0.3842,0.385,0.3873,0.3891,0.388,0.3886,0.3889,0.3918,0.3901,0.3902,0.4105,0.4109,0.4234,0.4252,0,0,0,0.3831,0.3853,0.3857,0.3851,0.3874,0.389,0.3888,0.3886,0.3899,0.39,0.3902,0.4104,0.4109,0.4227,0.4241,0.4411,0,0,0,0.384,0.3869,0.3858,0.3908,0.3874,0.3951,0.3888,0.3942,0.3955,0.3901,0.4106,0.411,0.4225,0.4235,0.4402,0.4307,0.4337,0,0,0.3879,0.3875,0.3906,0.3897,0.3982,0.3945,0.407,0.4054,0.4034,0.409,0.4095,0.4237,0.4241,0.4409,0.4582,0.4603,0,0,0,0.3921,0.3931,0.3963,0.4006,0.4058,0.4125,0.4129,0.417,0.4247,0.407,0.4297,0.4295,0.4397,0.4325,0.4344,0.4037,0.4132,0.4132,0.4131,0.3924,0.3965,0.4031,0.4089,0.4157,0.4263,0.4346,0.4407,0.4368,0.4459,0.445,0.4722,0.465,0.4662,0.4348,0.4524,0.4525,0.4525,0.4525,0.3963,0.3989,0.4068,0.4137,0.4237,0.4338,0.4526,0.4566,0.4755,0.4652,0.4747,0.4523,0.4689,0.4348,0.4535,0.4533,0.4532,0.4531,0.453,0.394,0.3962,0.4006,0.4119,0.4248,0.4388,0.4605,0.4743,0.4848,0.4957,0.4914,0.4909,0.4568,0.5032,0.5033,0.5034,0.5034,0.5035,0.5036,0.3886,0.3942,0.3999,0.4114,0.42,0.4375,0.4671,0.484,0.5023,0.5045,0.5045,0.4627,0.4877,0.481,0.5049,0.5047,0.5045,0.5044,0.5043,0.3869,0.3883,0.3983,0.406,0.4255,0.4359,0.4663,0.4932,0.5146,0.5205,0.4777,0.512,0.5069,0.5051,0.499,0.5262,0.5262,0.5262,0.5262,0.3839,0.3859,0.3987,0.411,0.4251,0.4371,0.4476,0.4661,0.4756,0.4676,0.4697,0.4492,0.4497,0.44,0.4396,0.4317,0.4412,0.4411,0.4409,0.3848,0.3898,0.398,0.4089,0.4238,0.4313,0.4214,0.4049,0.419,0.4345,0.4298,0.4334,0.3999,0.4031,0.3844,0.3863,0.3721,0,0]},{"header":{"parameterUnit":"m.s-1","parameterCategory":2,"la1":30.2992,"la2":30.254,"lo1":-89.0895,"lo2":-89.0443,"dy":0.0025,"dx":0.0025,"nx":19,"ny":19,"refTime":"2026-05-15T09:00:00:Z","depth":"0","parameterNumber":3,"parameterNumberName":"V-component_of_CURRENTS"},"data":[0,0,0,0.0397,0.0397,0.0397,0.0397,0.0389,0.0389,0,0,0,0,0,0,0,0,0,0,0,0.039,0.039,0.0397,0.0397,0.0397,0.0397,0.0389,0.0389,0,0,0,0,0,0,0,0,0,0,0,0.039,0.039,0.039,0.0397,0.0397,0.0397,0.0389,0.0389,0,0,0,0,0,0,0,0,0,0,0.0389,0.0387,0.039,0.039,0.0397,0.0397,0.0397,0.0389,0.0389,0.0391,0,0.0394,0,0.0399,0.039,0.039,0,0,0,0.0386,0.0387,0.0391,0.039,0.0397,0.0397,0.0394,0.0389,0.0389,0.0391,0.0394,0.0394,0.0399,0.039,0.039,0.0517,0.0518,0,0,0.0386,0.0385,0.0391,0.0391,0.0401,0.0394,0.0394,0.0389,0.0388,0.0394,0.0394,0.0399,0.039,0.039,0.0515,0.0517,0,0,0,0.0394,0.0385,0.0389,0.0391,0.0396,0.0394,0.0394,0.0388,0.0391,0.0394,0.0399,0.039,0.039,0.0514,0.0516,0.0695,0,0,0,0.0393,0.039,0.0389,0.0388,0.0396,0.0394,0.0394,0.039,0.039,0.0399,0.039,0.039,0.0512,0.0515,0.0687,0.0783,0,0,0,0.0389,0.039,0.0392,0.0388,0.0394,0.0394,0.0395,0.039,0.0394,0.039,0.039,0.0511,0.0514,0.068,0.0769,0.0918,0,0,0,0.0385,0.0429,0.0392,0.0445,0.0394,0.0473,0.0395,0.0437,0.0444,0.039,0.0512,0.0516,0.0677,0.0761,0.0909,0.1023,0.1073,0,0,0.045,0.0437,0.0473,0.0441,0.0544,0.0472,0.059,0.0552,0.0493,0.0508,0.051,0.0689,0.0769,0.0916,0.1208,0.1253,0,0,0,0.0501,0.0532,0.0554,0.0598,0.0624,0.0688,0.065,0.0653,0.0681,0.0514,0.0705,0.075,0.0837,0.0887,0.0923,0.0667,0.0531,0.053,0.053,0.0582,0.0612,0.0706,0.0756,0.0805,0.0845,0.0904,0.0902,0.0809,0.0861,0.0906,0.1157,0.1212,0.1241,0.0975,0.0908,0.0909,0.0909,0.091,0.0719,0.0785,0.0834,0.0936,0.0995,0.1085,0.1156,0.1132,0.1242,0.1099,0.1175,0.1086,0.1291,0.0994,0.0922,0.092,0.0918,0.0917,0.0916,0.0782,0.0828,0.0884,0.1041,0.118,0.1244,0.145,0.1448,0.1423,0.1509,0.1548,0.1545,0.1275,0.1543,0.1544,0.1545,0.1546,0.1547,0.1547,0.0824,0.0895,0.1008,0.1159,0.1272,0.145,0.1629,0.1749,0.1834,0.1781,0.1781,0.1347,0.135,0.1315,0.1565,0.1562,0.1559,0.1558,0.1557,0.0922,0.0932,0.1113,0.1229,0.1508,0.1771,0.1921,0.219,0.2258,0.2325,0.1784,0.1926,0.1887,0.1856,0.1833,0.2202,0.2202,0.2202,0.2203,0.0961,0.0988,0.1219,0.1426,0.169,0.1926,0.236,0.2553,0.2328,0.211,0.1901,0.1722,0.1707,0.1641,0.1615,0.1579,0.1876,0.1875,0.1874,0.103,0.1093,0.1266,0.1471,0.1773,0.2127,0.2566,0.2801,0.2294,0.1823,0.1528,0.1542,0.1227,0.1225,0.1068,0.1052,0.0975,0,0]}],[{"header":{"parameterUnit":"m.s-1","parameterCategory":2,"la1":30.2992,"la2":30.254,"lo1":-89.0895,"lo2":-89.0443,"dy":0.0025,"dx":0.0025,"nx":19,"ny":19,"refTime":"2026-05-15T09:00:00:Z","depth":"2","parameterNumber":2,"parameterNumberName":"U-component_of_CURRENTS"},"data":[0,0,0,0.3089,0.309,0.3149,0.3149,0.3263,0.3264,0,0,0,0,0,0,0,0,0,0,0,0.3062,0.3062,0.3089,0.3091,0.3149,0.3149,0.3262,0.3264,0,0,0,0,0,0,0,0,0,0,0,0.3062,0.3062,0.3063,0.3091,0.3149,0.3149,0.3262,0.3206,0,0,0,0,0,0,0,0,0,0,0.3143,0.3104,0.3062,0.3063,0.3091,0.3149,0.3149,0.3202,0.3209,0.3251,0,0.3264,0,0.3277,0.3273,0.3274,0,0,0,0.3079,0.3098,0.3131,0.3063,0.3092,0.3149,0.3119,0.3206,0.3214,0.326,0.3266,0.327,0.3279,0.3274,0.3275,0.3449,0.3449,0,0,0.3076,0.3057,0.3125,0.3136,0.3114,0.3117,0.3121,0.321,0.3212,0.3266,0.3273,0.3281,0.3275,0.3276,0.3448,0.3449,0,0,0,0.3074,0.3055,0.3084,0.3131,0.3145,0.3119,0.3124,0.3208,0.3223,0.3274,0.3282,0.3276,0.3278,0.3447,0.3448,0.3573,0,0,0,0.3072,0.3055,0.3083,0.307,0.3143,0.3169,0.3119,0.3216,0.3226,0.3282,0.3276,0.3279,0.3446,0.3448,0.3567,0.3577,0,0,0,0.3058,0.3053,0.3066,0.3069,0.3102,0.3168,0.3186,0.3218,0.3233,0.3274,0.328,0.3445,0.3447,0.3563,0.357,0.3682,0,0,0,0.3029,0.3067,0.3065,0.3112,0.3102,0.3183,0.3185,0.3248,0.3287,0.3277,0.3446,0.3448,0.3561,0.3566,0.3677,0.3488,0.3498,0,0,0.3067,0.307,0.3102,0.3104,0.318,0.3174,0.3278,0.3329,0.3332,0.3416,0.3419,0.3569,0.3569,0.3681,0.3603,0.3608,0,0,0,0.3109,0.3116,0.3143,0.3182,0.3243,0.3301,0.3347,0.34,0.3499,0.3367,0.3575,0.3569,0.3637,0.3512,0.3518,0.3458,0.3457,0.3457,0.3457,0.309,0.3137,0.3175,0.3232,0.3298,0.3407,0.3485,0.356,0.3571,0.3645,0.3678,0.3846,0.3715,0.3716,0.3707,0.3708,0.3708,0.3709,0.3709,0.3119,0.312,0.3184,0.3256,0.3347,0.3448,0.3618,0.3682,0.3857,0.3803,0.3866,0.3654,0.3729,0.3719,0.3717,0.3716,0.3715,0.3714,0.3713,0.3065,0.307,0.3131,0.3226,0.3337,0.3483,0.3638,0.3809,0.3928,0.4018,0.3902,0.3896,0.3917,0.408,0.4081,0.4081,0.4082,0.4082,0.4083,0.2992,0.3034,0.3069,0.3189,0.3243,0.341,0.3681,0.3799,0.3943,0.399,0.3989,0.3971,0.3959,0.3938,0.4092,0.409,0.4089,0.4088,0.4087,0.2918,0.2929,0.2978,0.3028,0.3162,0.3203,0.3492,0.3694,0.3891,0.391,0.3985,0.3984,0.3922,0.3913,0.389,0.4022,0.4022,0.4022,0.4022,0.2832,0.285,0.2888,0.2917,0.2976,0.3098,0.3111,0.3248,0.3543,0.3616,0.3633,0.3481,0.3493,0.3398,0.3401,0.3363,0.3359,0.3358,0.3356,0.2772,0.2798,0.2796,0.2833,0.2871,0.2908,0.28,0.2709,0.2975,0.3328,0.3491,0.3983,0.38,0.3803,0.3684,0.3678,0.3628,0,0]},{"header":{"parameterUnit":"m.s-1","parameterCategory":2,"la1":30.2992,"la2":30.254,"lo1":-89.0895,"lo2":-89.0443,"dy":0.0025,"dx":0.0025,"nx":19,"ny":19,"refTime":"2026-05-15T09:00:00:Z","depth":"2","parameterNumber":3,"parameterNumberName":"V-component_of_CURRENTS"},"data":[0,0,0,0.0187,0.0187,0.0194,0.0194,0.0192,0.0192,0,0,0,0,0,0,0,0,0,0,0,0.0184,0.0184,0.0187,0.0187,0.0195,0.0194,0.0192,0.0192,0,0,0,0,0,0,0,0,0,0,0,0.0184,0.0184,0.0184,0.0187,0.0195,0.0194,0.0192,0.0188,0,0,0,0,0,0,0,0,0,0,0.0182,0.0177,0.0184,0.0184,0.0187,0.0195,0.0194,0.0188,0.0188,0.0186,0,0.0191,0,0.0193,0.0191,0.0191,0,0,0,0.0183,0.0177,0.0185,0.0184,0.0187,0.0195,0.019,0.0188,0.0188,0.0186,0.0191,0.0191,0.0193,0.0191,0.0191,0.0235,0.0236,0,0,0.0182,0.0178,0.0185,0.0186,0.0194,0.019,0.019,0.0188,0.0187,0.0191,0.0191,0.0193,0.0191,0.0191,0.0235,0.0235,0,0,0,0.0184,0.0178,0.0186,0.0186,0.0189,0.019,0.0191,0.0187,0.0191,0.0191,0.0193,0.0191,0.0191,0.0234,0.0235,0.0356,0,0,0,0.0184,0.0179,0.0186,0.0182,0.0189,0.0188,0.0189,0.0191,0.0191,0.0193,0.0191,0.0191,0.0234,0.0235,0.0352,0.0433,0,0,0,0.0183,0.0179,0.0182,0.0182,0.0188,0.0189,0.0193,0.0191,0.0193,0.0191,0.0191,0.0233,0.0234,0.0348,0.0425,0.0506,0,0,0,0.0174,0.0207,0.0182,0.0225,0.0188,0.024,0.0193,0.0219,0.0225,0.0191,0.0234,0.0235,0.0346,0.042,0.05,0.0568,0.0598,0,0,0.0219,0.0212,0.0242,0.0221,0.0291,0.0238,0.0307,0.0285,0.0239,0.0231,0.0232,0.0353,0.0424,0.0505,0.0635,0.0664,0,0,0,0.026,0.0287,0.0302,0.0334,0.0347,0.0379,0.0348,0.0337,0.0337,0.0247,0.0343,0.0384,0.0431,0.046,0.0482,0.0241,0.024,0.024,0.024,0.0322,0.0345,0.041,0.0443,0.0473,0.0477,0.05,0.0475,0.0412,0.0429,0.0474,0.061,0.064,0.0658,0.0447,0.0448,0.0448,0.0449,0.0449,0.0432,0.0479,0.0507,0.0583,0.0602,0.0656,0.0663,0.0631,0.0668,0.0578,0.0617,0.0575,0.0691,0.0458,0.0457,0.0455,0.0454,0.0454,0.0453,0.0484,0.0511,0.0559,0.0669,0.0762,0.079,0.0926,0.0879,0.0805,0.0845,0.0859,0.0856,0.0706,0.0861,0.0861,0.0862,0.0863,0.0863,0.0864,0.0517,0.0566,0.0664,0.0773,0.0867,0.1006,0.1093,0.114,0.111,0.1021,0.102,0.0749,0.0735,0.0729,0.0875,0.0873,0.0871,0.087,0.087,0.0594,0.0605,0.0766,0.0867,0.1105,0.1342,0.1387,0.1488,0.1465,0.1456,0.111,0.11,0.1074,0.1054,0.1055,0.1277,0.1277,0.1277,0.1277,0.0629,0.065,0.0878,0.1071,0.131,0.1506,0.1783,0.1739,0.1551,0.1366,0.1362,0.1269,0.1251,0.1227,0.1203,0.1202,0.1463,0.1463,0.1463,0.0692,0.076,0.0933,0.1127,0.1416,0.1719,0.1972,0.1892,0.1564,0.1465,0.134,0.13,0.1145,0.1125,0.1064,0.1035,0.1025,0,0]}],[{"header":{"parameterUnit":"m.s-1","parameterCategory":2,"la1":30.2992,"la2":30.254,"lo1":-89.0895,"lo2":-89.0443,"dy":0.0025,"dx":0.0025,"nx":19,"ny":19,"refTime":"2026-05-15T09:00:00:Z","depth":"4","parameterNumber":2,"parameterNumberName":"U-component_of_CURRENTS"},"data":[0,0,0,0.1898,0.1901,0.2085,0.2086,0.2256,0.2257,0,0,0,0,0,0,0,0,0,0,0,0.1841,0.1843,0.1897,0.1902,0.2085,0.2086,0.2256,0.2257,0,0,0,0,0,0,0,0,0,0,0,0.1841,0.1843,0.1844,0.1903,0.2085,0.2086,0.2255,0.2133,0,0,0,0,0,0,0,0,0,0,0.1963,0.1929,0.1842,0.1844,0.1904,0.2084,0.2086,0.2128,0.2141,0.2154,0,0.2195,0,0.2227,0.2267,0.2268,0,0,0,0.1903,0.1918,0.1959,0.1845,0.1905,0.2084,0.2003,0.2136,0.215,0.2171,0.2198,0.2205,0.2229,0.2268,0.2269,0.2429,0.2429,0,0,0.1893,0.1881,0.1949,0.1968,0.1969,0.1997,0.2008,0.2145,0.217,0.2199,0.2209,0.2232,0.2269,0.227,0.2428,0.2429,0,0,0,0.1863,0.1874,0.1913,0.1961,0.1998,0.2002,0.2015,0.2165,0.2176,0.2211,0.2234,0.227,0.2272,0.2427,0.2428,0.2471,0,0,0,0.1857,0.1856,0.1908,0.1904,0.1996,0.2094,0.2032,0.2167,0.2183,0.2233,0.227,0.2273,0.2427,0.2428,0.2468,0.2468,0,0,0,0.183,0.1854,0.1878,0.1903,0.198,0.2093,0.2113,0.2171,0.2197,0.2268,0.2273,0.2426,0.2428,0.2466,0.2465,0.2544,0,0,0,0.1806,0.1833,0.1878,0.1925,0.1978,0.2077,0.2113,0.2209,0.2273,0.2271,0.2427,0.2428,0.2465,0.2463,0.2542,0.2216,0,0,0,0.1812,0.1835,0.1858,0.1901,0.1982,0.2051,0.2157,0.226,0.2298,0.2375,0.238,0.2469,0.2464,0.2544,0.231,0,0,0,0,0.184,0.1865,0.1897,0.1965,0.2041,0.2144,0.2244,0.23,0.2415,0.2344,0.2489,0.2484,0.2534,0.2336,0.2436,0.2436,0.2435,0.2435,0.2435,0.1835,0.1874,0.1919,0.1991,0.2073,0.2222,0.2308,0.2406,0.2443,0.2509,0.2535,0.264,0.2433,0.2562,0.2562,0.2562,0.2562,0.2563,0.2563,0.1822,0.1825,0.1923,0.1982,0.2104,0.222,0.2391,0.2462,0.2605,0.2595,0.2642,0.2411,0.2567,0.2566,0.2566,0.2565,0.2565,0.2565,0.2564,0.1783,0.1777,0.1849,0.1938,0.2078,0.2239,0.2358,0.2515,0.2638,0.2694,0.2533,0.2685,0.2666,0.2754,0.2755,0.2755,0.2755,0.2756,0.2756,0.1678,0.1738,0.1772,0.1898,0.1966,0.2121,0.2364,0.2449,0.2624,0.2542,0.2734,0.2706,0.2699,0.2678,0.2762,0.2761,0.276,0.2759,0.2759,0.1564,0.1625,0.1642,0.1698,0.1826,0.1914,0.2184,0.2318,0.2406,0.2424,0.2468,0.248,0.244,0.2441,0.2409,0.2416,0.2412,0.2408,0,0.1476,0.151,0.1505,0.1525,0.1568,0.1761,0.1804,0.1974,0.2166,0.2094,0.2404,0.2446,0.2455,0.2401,0.2397,0.2351,0,0,0,0.1389,0.1403,0.136,0.1402,0.142,0.1574,0.1802,0.1797,0.2147,0.2146,0.2311,0.2337,0.2552,0.2779,0.2749,0.2742,0.2706,0,0]},{"header":{"parameterUnit":"m.s-1","parameterCategory":2,"la1":30.2992,"la2":30.254,"lo1":-89.0895,"lo2":-89.0443,"dy":0.0025,"dx":0.0025,"nx":19,"ny":19,"refTime":"2026-05-15T09:00:00:Z","depth":"4","parameterNumber":3,"parameterNumberName":"V-component_of_CURRENTS"},"data":[0,0,0,0.0131,0.0132,0.0142,0.0142,0.0133,0.0133,0,0,0,0,0,0,0,0,0,0,0,0.0126,0.0126,0.0131,0.0132,0.0142,0.0142,0.0133,0.0133,0,0,0,0,0,0,0,0,0,0,0,0.0126,0.0126,0.0126,0.0132,0.0142,0.0142,0.0133,0.013,0,0,0,0,0,0,0,0,0,0,0.0123,0.0121,0.0126,0.0126,0.0132,0.0142,0.0142,0.013,0.013,0.0124,0,0.0127,0,0.0132,0.0132,0.0132,0,0,0,0.0128,0.0121,0.0126,0.0126,0.0132,0.0142,0.0136,0.013,0.0131,0.0124,0.0127,0.0127,0.0132,0.0132,0.0132,0.0138,0.0139,0,0,0.0128,0.0125,0.0126,0.0126,0.0137,0.0136,0.0137,0.0131,0.013,0.0127,0.0127,0.0132,0.0132,0.0132,0.0138,0.0138,0,0,0,0.0128,0.0125,0.013,0.0126,0.0131,0.0136,0.0137,0.013,0.0133,0.0127,0.0132,0.0132,0.0132,0.0138,0.0138,0.0204,0,0,0,0.0128,0.0125,0.0129,0.0128,0.0131,0.0134,0.0137,0.0133,0.0133,0.0132,0.0132,0.0132,0.0138,0.0138,0.0202,0.026,0,0,0,0.0125,0.0125,0.0128,0.0128,0.0134,0.0134,0.0136,0.0133,0.0135,0.0132,0.0132,0.0138,0.0138,0.02,0.0255,0.0298,0,0,0,0.012,0.014,0.0127,0.0156,0.0134,0.0167,0.0136,0.0155,0.0158,0.0132,0.0138,0.0138,0.0199,0.0252,0.0295,0.033,0,0,0,0.0147,0.0143,0.0163,0.0153,0.0196,0.0165,0.0202,0.0188,0.0157,0.0137,0.0138,0.0202,0.0255,0.0298,0.0349,0,0,0,0,0.0174,0.0192,0.0201,0.0223,0.0232,0.0252,0.0229,0.0211,0.0197,0.016,0.0191,0.0222,0.0247,0.0257,0.014,0.014,0.014,0.014,0.014,0.0211,0.0227,0.0271,0.0293,0.0312,0.0308,0.0314,0.0282,0.0238,0.0236,0.0266,0.0335,0.0345,0.0238,0.0239,0.0239,0.0239,0.0239,0.024,0.0279,0.0313,0.0335,0.0384,0.0396,0.0429,0.0408,0.0377,0.0368,0.0312,0.0332,0.0313,0.0246,0.0245,0.0244,0.0243,0.0242,0.0242,0.0242,0.0311,0.0332,0.0366,0.0448,0.0517,0.053,0.0598,0.0544,0.046,0.0472,0.0476,0.039,0.0396,0.0478,0.0478,0.0478,0.0479,0.0479,0.0479,0.033,0.0368,0.0446,0.053,0.0608,0.0705,0.072,0.0712,0.0626,0.0579,0.0503,0.0415,0.0408,0.041,0.0486,0.0485,0.0484,0.0484,0.0483,0.0382,0.0401,0.0523,0.0605,0.0792,0.0867,0.0885,0.0837,0.0824,0.0772,0.0623,0.0614,0.0601,0.059,0.0597,0.0733,0.0733,0.0734,0,0.0414,0.0432,0.0605,0.0759,0.0913,0.0973,0.0997,0.0969,0.0838,0.0824,0.0806,0.0641,0.0632,0.0618,0.0608,0.0619,0,0,0,0.0465,0.0512,0.0641,0.0791,0.097,0.1016,0.1012,0.0974,0.0867,0.0843,0.0754,0.0749,0.063,0.0507,0.0466,0.0457,0.0458,0,0]}]]